Location: Kunchanapalle
(16.4623°N, 80.6176°E)
Time: 10:04:14
(UTC+00:00)

CZ-4 R/B - Pass Details

Date: 13 August 2020
Orbit: 531 x 599 km, 97.7° (Epoch: 19 September)

Event Time Altitude Azimuth Distance (km) Brightness Sun altitude
Rises 13:36:53 0° 175° (S) 2,667 4.6 -8.5°
Reaches altitude 10° 13:38:59 10° 179° (S) 1,784 3.7 -9.0°
Maximum altitude 13:42:47 60° 259° (W) 619 1.9 -9.9°
Drops below altitude 10° 13:46:39 10° 340° (NNW) 1,816 4.5 -10.8°
Sets 13:48:49 0° 344° (NNW) 2,721 5.4 -11.3°
